EW4337 Weather Reports


Display with metric or nautical units.
time (UTC)temp
F
wind
direction
speed
MPH
gust
MPH
rain 1hr
in
rain 24hr
in
rain mn
in
humidity
%
barometer
mb
20180223080703 31 91 3.0 9.0 0.00 0.00 0.00 94 1026.4
20180223075703 31 59 3.0 10.0 0.00 0.00 0.00 94 1026.3
20180223074703 30 65 5.0 10.0 0.00 0.00 0.00 94 1026.2
20180223073703 30 64 3.0 9.0 0.00 0.00 0.00 94 1026.2
20180223072703 30 63 4.0 9.0 0.00 0.00 0.00 94 1026.2
20180223071703 30 66 4.0 10.0 0.00 0.00 0.00 94 1026.0
20180223070703 30 72 3.0 9.0 0.00 0.00 0.00 94 1025.9
20180223065703 30 70 1.0 7.0 0.00 0.00 0.00 95 1025.9
20180223064703 29 73 4.0 9.0 0.00 0.00 0.00 95 1025.9
20180223063703 29 66 3.0 9.0 0.00 0.00 0.00 95 1025.8
20180223062702 29 58 2.0 8.0 0.00 0.00 0.00 95 1025.7
20180223061703 28 57 2.0 6.0 0.00 0.00 0.00 95 1025.6
20180223060703 28 84 1.0 5.0 0.00 0.00 0.00 95 1025.6
20180223055703 28 66 2.0 5.0 0.00 0.00 0.00 95 1025.5
20180223054703 28 63 1.0 5.0 0.00 0.00 0.00 95 1025.4
20180223053704 28 51 1.0 5.0 0.00 0.00 0.00 95 1025.5
20180223052703 28 56 0.0 3.0 0.00 0.00 0.00 95 1025.5
20180223051704 27 62 1.0 3.0 0.00 0.00 0.00 95 1025.5
20180223050703 27 60 0.0 3.0 0.00 0.00 0.00 95 1025.5
20180223045704 27 44 1.0 3.0 0.00 0.00 0.00 95 1025.5
20180223044703 27 45 0.0 3.0 0.00 0.00 0.00 95 1025.4
20180223043703 27 53 0.0 0.0 0.00 0.00 0.00 95 1025.3
20180223042704 28 45 0.0 0.0 0.00 0.00 0.00 95 1025.3
20180223041703 27 66 0.0 3.0 0.00 0.00 0.00 95 1025.3
20180223040703 27 53 0.0 0.0 0.00 0.00 0.00 95 1025.3
20180223035703 28 52 0.0 1.0 0.00 0.00 0.00 95 1025.3
20180223034703 28 58 1.0 5.0 0.00 0.00 0.00 95 1025.4
20180223033704 28 56 0.0 3.0 0.00 0.00 0.00 95 1025.5
20180223032704 28 58 1.0 5.0 0.00 0.00 0.00 95 1025.4
20180223031703 28 49 1.0 3.0 0.00 0.00 0.00 95 1025.4
20180223030704 28 61 1.0 7.0 0.00 0.00 0.00 95 1025.4
20180223025704 28 73 1.0 5.0 0.00 0.00 0.00 95 1025.4
20180223024703 28 64 2.0 5.0 0.00 0.00 0.00 95 1025.5
20180223023703 28 68 0.0 5.0 0.00 0.00 0.00 95 1025.5
20180223022704 28 62 1.0 5.0 0.00 0.00 0.00 95 1025.5
20180223021704 29 63 0.0 5.0 0.00 0.00 0.00 95 1025.6
20180223020703 29 83 1.0 6.0 0.00 0.00 0.00 95 1025.7
20180223015703 29 45 2.0 6.0 0.00 0.00 0.00 95 1025.8
20180223014704 29 63 1.0 8.0 0.00 0.00 0.00 95 1025.9
20180223013704 29 62 2.0 6.0 0.00 0.00 0.00 94 1025.9
20180223012703 29 68 1.0 3.0 0.00 0.00 0.00 94 1026.0
20180223011704 29 69 1.0 5.0 0.00 0.00 0.00 94 1026.0
20180223010704 29 79 2.0 8.0 0.00 0.00 0.00 94 1026.0
20180223005704 29 70 3.0 6.0 0.00 0.00 0.00 94 1026.1
20180223004704 29 73 0.0 3.0 0.00 0.00 0.00 94 1026.1
20180223003704 29 67 0.0 0.0 0.00 0.00 0.00 94 1026.1
20180223002704 30 70 0.0 3.0 0.00 0.00 0.00 94 1026.1
20180223001705 30 73 1.0 5.0 0.00 0.00 0.00 93 1026.1
20180223000704 30 60 2.0 8.0 0.00 0.00 0.00 94 1026.2
20180222235704 30 84 2.0 3.0 0.00 0.00 0.00 93 1026.3
20180222234705 30 59 1.0 3.0 0.00 0.00 0.00 93 1026.4
20180222233705 30 75 2.0 6.0 0.00 0.00 0.00 93 1026.3
20180222232705 30 49 0.0 5.0 0.00 0.00 0.00 93 1026.3
20180222231704 30 55 0.0 3.0 0.00 0.00 0.00 92 1026.2
20180222230704 30 61 0.0 5.0 0.00 0.00 0.00 92 1026.3
20180222225704 30 56 1.0 5.0 0.00 0.00 0.00 92 1026.3
20180222224704 30 60 1.0 5.0 0.00 0.00 0.00 92 1026.3
20180222223704 30 76 0.0 3.0 0.00 0.00 0.00 91 1026.3
20180222222705 30 76 0.0 2.0 0.00 0.00 0.00 91 1026.3
20180222221704 30 58 0.0 3.0 0.00 0.00 0.00 91 1026.3
20180222220705 30 62 0.0 1.0 0.00 0.00 0.00 90 1026.3
20180222215703 31 79 0.0 0.0 0.00 0.00 0.00 90 1026.3
20180222214704 31 59 0.0 0.0 0.00 0.00 0.00 90 1026.2
20180222213703 31 47 0.0 0.0 0.00 0.00 0.00 89 1026.1
20180222212703 32 61 0.0 3.0 0.00 0.00 0.00 89 1026.2
20180222211703 32 85 0.0 0.0 0.00 0.00 0.00 89 1026.1
20180222210704 32 44 0.0 3.0 0.00 0.00 0.00 89 1026.2
20180222205703 32 78 0.0 3.0 0.00 0.00 0.00 88 1026.2
20180222204704 33 64 1.0 3.0 0.00 0.00 0.00 88 1026.2
20180222203703 33 81 0.0 6.0 0.00 0.00 0.00 88 1026.2
20180222202703 33 74 1.0 9.0 0.00 0.00 0.00 88 1026.2
20180222201704 33 80 2.0 7.0 0.00 0.00 0.00 87 1026.2
20180222200704 33 69 5.0 8.0 0.00 0.00 0.00 87 1026.2
20180222195703 33 71 4.0 10.0 0.00 0.00 0.00 87 1026.2
20180222194703 33 70 3.0 9.0 0.00 0.00 0.00 87 1026.1
20180222193704 33 78 4.0 8.0 0.00 0.00 0.00 87 1026.2
20180222192704 33 65 2.0 6.0 0.00 0.00 0.00 87 1026.2
20180222191703 33 70 2.0 6.0 0.00 0.00 0.00 86 1026.2
20180222190704 33 71 2.0 6.0 0.00 0.00 0.00 86 1026.3
20180222185703 33 75 2.0 5.0 0.00 0.00 0.00 86 1026.2
20180222184703 33 65 2.0 6.0 0.00 0.00 0.00 86 1026.3
20180222183704 33 65 3.0 6.0 0.00 0.00 0.00 86 1026.3
20180222182704 33 71 2.0 5.0 0.00 0.00 0.00 86 1026.2
20180222181704 32 64 1.0 3.0 0.00 0.00 0.00 86 1026.2
20180222180704 32 58 0.0 3.0 0.00 0.00 0.00 86 1026.2
20180222175704 32 64 0.0 3.0 0.00 0.00 0.00 85 1026.2
20180222174704 32 62 0.0 0.0 0.00 0.00 0.00 85 1026.2
20180222173704 32 76 0.0 2.0 0.00 0.00 0.00 85 1026.2
20180222172706 33 61 1.0 3.0 0.00 0.00 0.00 84 1026.1
20180222171704 33 65 0.0 1.0 0.00 0.00 0.00 84 1026.1
20180222170703 33 60 0.0 3.0 0.00 0.00 0.00 83 1026.0
20180222165704 33 54 0.0 1.0 0.00 0.00 0.00 83 1026.1
20180222164704 34 57 0.0 3.0 0.00 0.00 0.00 82 1026.1
20180222163704 34 58 1.0 3.0 0.00 0.00 0.00 81 1026.1
20180222162701 34 66 0.0 3.0 0.00 0.00 0.00 81 1026.1
20180222161701 35 63 1.0 3.0 0.00 0.00 0.00 80 1026.2
20180222160702 35 64 3.0 6.0 0.00 0.00 0.00 79 1026.3
20180222155701 35 66 1.0 6.0 0.00 0.00 0.00 79 1026.2
20180222154702 35 54 1.0 5.0 0.00 0.00 0.00 79 1026.3
20180222153702 36 66 2.0 3.0 0.00 0.01 0.00 79 1026.2
20180222152701 36 62 1.0 6.0 0.00 0.01 0.00 78 1026.3
20180222151702 36 36 1.0 6.0 0.00 0.01 0.00 78 1026.3
20180222150701 36 43 2.0 7.0 0.00 0.01 0.00 78 1026.4
20180222145702 36 72 3.0 8.0 0.00 0.01 0.00 79 1026.3
20180222144702 36 91 3.0 8.0 0.00 0.01 0.00 80 1026.3
20180222143702 35 90 0.0 7.0 0.00 0.01 0.00 80 1026.4
20180222142701 35 91 3.0 8.0 0.00 0.01 0.00 80 1026.5
20180222141701 35 92 4.0 8.0 0.00 0.01 0.00 79 1026.5
20180222140701 36 105 2.0 8.0 0.00 0.01 0.00 78 1026.7
20180222135702 36 111 3.0 9.0 0.00 0.01 0.00 77 1026.8
20180222134703 36 102 3.0 8.0 0.00 0.01 0.00 76 1026.8
20180222133702 37 100 2.0 8.0 0.00 0.01 0.00 76 1026.8
20180222132702 37 113 2.0 7.0 0.00 0.01 0.00 76 1026.8
20180222131702 37 102 4.0 8.0 0.00 0.01 0.00 76 1026.9
20180222130703 37 94 3.0 8.0 0.00 0.01 0.00 76 1027.1
20180222125702 37 98 3.0 9.0 0.00 0.01 0.00 76 1027.2
20180222124703 37 87 5.0 9.0 0.00 0.01 0.00 77 1027.3
20180222123702 37 91 5.0 9.0 0.00 0.01 0.00 76 1027.4
20180222122701 37 62 1.0 10.0 0.00 0.01 0.00 76 1027.4
20180222121702 37 65 5.0 9.0 0.00 0.01 0.00 77 1027.4
20180222120702 37 22 3.0 9.0 0.00 0.01 0.00 77 1027.5
20180222115703 37 58 5.0 9.0 0.00 0.01 0.00 77 1027.6
20180222114702 37 94 2.0 7.0 0.00 0.01 0.00 78 1027.6
20180222113702 36 60 2.0 6.0 0.00 0.01 0.00 80 1027.6
20180222112702 35 59 1.0 6.0 0.00 0.01 0.00 80 1027.6
20180222111702 35 63 3.0 6.0 0.00 0.01 0.00 81 1027.7
20180222110702 35 81 3.0 7.0 0.00 0.01 0.00 81 1027.7
20180222105703 35 88 2.0 5.0 0.00 0.01 0.00 81 1027.7
20180222104702 35 94 2.0 5.0 0.00 0.01 0.00 82 1027.8
20180222103703 35 102 2.0 5.0 0.00 0.01 0.00 83 1027.8
20180222102702 35 63 1.0 5.0 0.00 0.01 0.00 83 1027.8
20180222101702 34 100 2.0 5.0 0.00 0.01 0.00 85 1027.8
20180222100702 34 66 1.0 3.0 0.00 0.01 0.00 86 1027.8
20180222095702 34 90 2.0 3.0 0.00 0.01 0.00 87 1027.7
20180222094702 33 110 3.0 5.0 0.00 0.01 0.00 88 1027.7
20180222093703 33 96 2.0 5.0 0.00 0.01 0.00 90 1027.7
20180222092702 32 101 1.0 6.0 0.00 0.01 0.00 90 1027.7
20180222091704 32 98 2.0 7.0 0.00 0.01 0.00 91 1027.7
20180222090702 31 81 2.0 6.0 0.00 0.01 0.00 92 1027.7
20180222085702 31 78 2.0 6.0 0.00 0.01 0.00 92 1027.7
20180222084703 30 64 2.0 6.0 0.00 0.01 0.00 93 1027.8
20180222083703 30 69 2.0 3.0 0.00 0.01 0.00 93 1027.8
20180222082703 29 58 1.0 3.0 0.00 0.01 0.00 93 1027.7
20180222081702 29 40 0.0 2.0 0.00 0.01 0.00 93 1027.8